www.pogodaiklimat.ru

Погода и климат >> Архив погоды >> Таиланд >> Вичан Бури


ПОГОДА в Вичан Бури

  • Прогноз погоды в Вичан Бури
  • Монитор погоды в Вичан Бури

АРХИВ ПОГОДЫ в Вичан Бури

Время (UTC), дата Ветер
(напр.,м/с)
 
Видим.   Явления Облачность Т
(С)
Тd
(С)
f
(%)
Тe
(С)
Тes
(С)
Комфортность P
(гПа)
Po
(гПа)
Тmin
(С)
Tmax
(С)
R
(мм)
R24
(мм)
S
(см)
00 16.04 штиль 0 10 км 4/3 600 м
[Cu med, cong Cs]
+28.7 +25.3 82 +42 +43 опасность
перегрева
1009.4 1001.4 +27.7
03 16.04 СВ 3 10 км 6/3 600 м
[Cu med, cong Cs]
+33.7 +27.5 70 +53 +61 опасность
перегрева
1011.2 1003.3
06 16.04 Ю 3 10 км 8/3 600 м
[Cu Sc Cs]
+38.1 +24.3 46 +50 +61 опасность
перегрева
1007.7 1000.0
09 16.04 ЮЗ 4 10 км {гроза} 9/5 600 м
[Cu Sc Cs]
+33.7 +22.2 51 +43 +45 опасность
перегрева
1005.2 997.4
12 16.04 штиль 0 10 км {гроза} 4/3 600 м
[Cu med, cong Cs]
+32.3 +24.3 63 +45 +45 опасность
перегрева
1006.1 998.3 +38.2
15 16.04 штиль 0 8000 м дымка 3/3 600 м
[Cu med, cong Cs]
+30.3 +24.6 72 +43 +43 опасность
перегрева
1008.7 1000.8
18 16.04 штиль 0 7000 м дымка 3/0
[Cs]
+28.6 +24.0 76 +40 +40 очень
душно
1008.5 1000.5
21 16.04 штиль 0 7000 м дымка 3/0
[Cs]
+28.1 +24.5 81 +40 +40 очень
душно
1008.1 1000.1
00 17.04 штиль 0 10 км 3/0
[Cs]
+28.8 +25.2 81 +42 +43 опасность
перегрева
1009.5 1001.5 +27.7
03 17.04 штиль 0 10 км 3/0
[Cs]
+34.0 +26.4 65 +51 +71 опасность
перегрева
1010.7 1002.9
06 17.04 ЮЗ 3 10 км 3/1 600 м
[Cu med, cong Cs]
+38.0 +25.0 48 +51 +67 опасность
перегрева
1007.9 1000.2
09 17.04 штиль 0 10 км 3/3 600 м
[Cu med, cong Cs]
+39.8 +24.7 43 +52 +59 опасность
перегрева
1004.0 996.4
12 17.04 штиль 0 10 км 3/0
[Cs]
+36.0 +24.7 52 +49 +49 опасность
перегрева
1004.3 996.6 +40.0
15 17.04 штиль 0 8000 м мгла 3/0
[Cs]
+33.0 +24.5 61 +46 +46 опасность
перегрева
1008.1 1000.3
18 17.04 штиль 0 8000 м дымка 3/0
[Cs]
+31.0 +25.4 72 +45 +45 опасность
перегрева
1007.5 999.6
21 17.04 штиль 0 8000 м дымка 3/0
[Cs]
+28.9 +25.5 82 +43 +43 опасность
перегрева
1006.3 998.4
00 18.04 штиль 0 10 км 3/0
[Cs]
+28.2 +24.2 79 +39 +41 очень
душно
1008.4 1000.4 +27.0
03 18.04 штиль 0 10 км 3/0
[Cs]
+34.1 +26.0 63 +50 +70 опасность
перегрева
1009.5 1001.7
06 18.04 ЮЗ 4 10 км 4/3 600 м
[Cu Sc Cs]
+38.2 +25.7 49 +52 +62 опасность
перегрева
1006.6 999.0
09 18.04 Ю 9 10 км гроза без осадков 9/4 600 м
[Cb cap Cs]
+37.3 +26.6 55 +54 +55 опасность
перегрева
1003.9 996.2
12 18.04 штиль 0 10 км {гроза} 10/4 600 м
[Cu Sc Cs]
+30.4 +23.6 67 +41 +41 опасность
перегрева
1005.8 998.0 +39.8 0.1
15 18.04 штиль 0 8000 м дымка 8/4 600 м
[Cu Sc Cs]
+30.1 +23.9 69 +41 +41 опасность
перегрева
1007.8 999.9
18 18.04 СВ 3 7000 м дымка 8/4 600 м
[Cu Sc Cs]
+29.2 +23.5 71 +40 +40 очень
душно
1006.7 998.8
21 18.04 штиль 0 7000 м дымка 4/3 600 м
[Cu med, cong Cs]
+28.6 +24.6 79 +41 +41 опасность
перегрева
1005.4 997.6
00 19.04 штиль 0 10 км 3/0
[Cs]
+29.0 +25.5 81 +43 +44 опасность
перегрева
1006.8 998.9 +28.3 0.1
03 19.04 штиль 0 10 км 3/0
[Cs]
+33.9 +25.6 62 +49 +69 опасность
перегрева
1007.9 1000.1
06 19.04 штиль 0 10 км 3/1 600 м
[Cu med, cong Cs]
+38.0 +20.2 36 +44 +69 опасность
перегрева
1005.1 997.4
09 19.04 ЮВ 5 10 км 4/3 600 м
[Cu med, cong Cs]
+39.8 +20.2 32 +45 +48 опасность
перегрева
1001.9 994.3
12 19.04 штиль 0 10 км 3/0
[Cs]
+36.8 +20.9 40 +44 +44 опасность
перегрева
1002.5 994.9 +40.0
15 19.04 штиль 0 8000 м мгла 3/0
[Cs]
+32.1 +23.6 61 +43 +43 опасность
перегрева
1005.3 997.5
18 19.04 штиль 0 7000 м дымка 3/0
[Cs]
+31.4 +24.6 67 +44 +44 опасность
перегрева
1004.8 997.0
21 19.04 штиль 0 7000 м дымка 3/0
[Cs]
+29.4 +25.3 79 +43 +43 опасность
перегрева
1003.8 995.9
00 20.04 штиль 0 10 км 3/0
[Cs]
+29.5 +26.0 81 +44 +46 опасность
перегрева
1005.2 997.3 +27.7
03 20.04 ЮЗ 4 10 км 3/1 600 м
[Cu med, cong Cs]
+35.0 +24.4 54 +47 +56 опасность
перегрева
1006.6 998.9
06 20.04 ЮВ 3 10 км 3/1 600 м
[Cu med, cong Cs]
+38.7 +22.6 40 +48 +63 опасность
перегрева
1003.6 996.0
09 20.04 ЮЗ 5 10 км 3/1 600 м
[Cu med, cong Cs]
+40.5 +18.8 29 +45 +48 опасность
перегрева
1001.0 993.5
12 20.04 штиль 0 9000 м мгла 3/1 600 м
[Cu med, cong Cs]
+37.0 +18.9 35 +42 +42 опасность
перегрева
1001.4 993.8 +41.0
15 20.04 штиль 0 8000 м мгла 3/0
[Cs]
+32.5 +18.7 44 +37 +37 очень
душно
1003.5 995.8
18 20.04 штиль 0 8000 м мгла 3/0
[Cs]
+30.0 +21.9 62 +39 +39 очень
душно
1002.4 994.6
21 20.04 штиль 0 8000 м дымка 3/0
[Cs]
+28.0 +22.9 74 +37 +37 очень
душно
1003.3 995.4
00 21.04 штиль 0 10 км 3/0
[Cs]
+27.5 +21.5 70 +35 +37 очень
душно
1005.2 997.3 +26.7
03 21.04 Ю 3 10 км 3/0
[Cs]
+35.0 +23.6 52 +46 +58 опасность
перегрева
1006.3 998.5
06 21.04 Ю 3 10 км 3/1 600 м
[Cu med, cong Cs]
+39.5 +23.1 39 +49 +64 опасность
перегрева
1003.6 996.0
09 21.04 штиль 0 10 км 3/3 600 м
[Cu med, cong Cs]
+41.0 +22.4 35 +49 +57 опасность
перегрева
1001.1 993.5
12 21.04 штиль 0 9000 м мгла 3/3 600 м
[Cu med, cong Cs]
+37.5 +22.3 42 +46 +46 опасность
перегрева
1001.5 993.9 +41.0
15 21.04 штиль 0 8000 м мгла 3/3 600 м
[Cu med, cong Cs]
+34.5 +23.0 51 +44 +44 опасность
перегрева
1004.6 996.8
18 21.04 штиль 0 8000 м мгла 3/0
[Cs]
+31.8 +24.2 64 +44 +44 опасность
перегрева
1003.6 995.8
21 21.04 штиль 0 8000 м дымка 3/0
[Cs]
+30.0 +24.3 72 +42 +42 опасность
перегрева
1004.3 996.4
00 22.04 штиль 0 10 км 3/0
[Cs]
+30.2 +23.9 69 +42 +43 опасность
перегрева
1007.0 999.1 +28.7
03 22.04 Ю 4 10 км 4/3 600 м
[Cu med, cong Cs]
+34.8 +23.3 51 +45 +52 опасность
перегрева
1007.1 999.4
06 22.04 ЮВ 4 10 км 4/3 600 м
[Cu med, cong Cs]
+38.7 +23.0 41 +48 +58 опасность
перегрева
1004.4 996.8
09 22.04 СВ 12 7000 м гроза, ливневой дождь 10/5 600 м
[Cb cap Cs]
+26.2 +24.5 90 +37 +37 очень
душно
1006.0 998.0 4
12 22.04 штиль 0 10 км {гроза} 8/5 600 м
[Cu Sc Cs]
+26.4 +23.8 86 +36 +36 очень
душно
1006.3 998.3 +40.6 7
15 22.04 штиль 0 8000 м дымка 8/5 600 м
[Cu Sc Cs]
+27.1 +23.8 82 +37 +37 очень
душно
1011.2 1003.2
18 22.04 штиль 0 7000 м дымка 10/6 600 м
[Cu Sc Cs]
+25.8 +22.2 81 +34 +34 очень
душно
1008.7 1000.7
21 22.04 штиль 0 7000 м дымка 10/6 600 м
[Cu Sc Cs]
+25.7 +22.7 84 +34 +34 очень
душно
1008.4 1000.4

 

Местоположение метеостанции Вичан Бури (Таиланд): широта 15.63 долгота 101.11 высота над уровнем моря 69 м.

В архиве по умолчанию представлена погода в Вичан Бури за последнюю неделю. Архивные данные за месяц целиком и за предыдущие месяцы, начиная с января 2011 года, Вы можете получить, выбрав интересующий диапазон дат из раскрывающегося списка и нажав кнопку "Ввод!".


*Определитесь, кто Вы:
робот инопланетянин человек

Внимание! Время в таблицах - всемирное. Для получения местного времени необходимо прибавить поправку, которая равна 7 ч.

Смотрите также архив погоды в соседних городах и на ближайших метеорологических станциях:

Погода в Буа Чум (Таиланд) (41 км)
Погода в Лаем-Чабанге (Таиланд) (66 км)
Погода в Такфа Агромете (Таиланд) (72 км)
Погода в Пхетчабуне (Таиланд) (89 км)
Погода в Чайяпхуме (Таиланд) (100 км)
Погода в Накхон Саван (Таиланд) (103 км)
Погода в Лопбури (Таиланд) (107 км)
Погода в Чайнат Агромете (Таиланд) (113 км)
Погода в Пакчонг Агромете (Таиланд) (113 км)
Погода в Утай Тани (Таиланд) (118 км)

Пояснения к столбцам:

Ветер - указаны скорость ветра в м/с - средняя за 10 мин, порывы в срок и между сроками (в фигурных скобках) и направление, откуда дует ветер: С - северный, СВ - северо-восточный, В - восточный, ЮВ - юго-восточный, Ю - южный, ЮЗ - юго-западный, З - западный, СЗ - северо-западный.
Видимость - горизонтальная дальность видимости в метрах или километрах. При видимости от 1 до 10 км при отсутствии осадков обычно наблюдается дымка, при ухудшении видимости до 1 км и менее - туман. В сухую погоду видимость может ухудшаться дымом, пылью или мглою.
Явления - указаны атмосферные явления, наблюдавшиеся в срок или в последний час перед сроком; фигурными скобками обозначены явления, наблюдавшиеся между сроками (за 1-3 часа до срока); квадратными скобками обозначены град или гололедные отложения с указанием их диаметра в мм.
Облачность - указаны через наклонную черту общая и нижняя облачность в баллах и высота нижней границы облаков в метрах; квадратными скобками обозначены формы облаков: Ci - перистые, Cs - перисто-слоистые, Cc - перисто-кучевые, Ac - высококучевые, As - высокослоистые, Sc - слоисто-кучевые, Ns - слоисто-дождевые, Cu - кучевые, Cb - кучево-дождевые. Подробнее классификацию облаков см. в Атласе облаков (PDF).
T - Температура воздуха - температура, измеренная на высоте 2 м над землей.
Td - Температура точки росы - температура, при понижении до которой содержащийся в воздухе водяной пар достигнет насыщения.
f - Относительная влажность воздуха - влажноcть воздуха, измеренная на высоте 2 м над землей.
Te - Эффективная температура - температура, которую ощущает одетый по сезону человек в тени. Характеристика душности погоды. При расчете учитывается влияние влажности воздуха и скорости ветра на теплоощущения человека.
Tes - Эффективная температура на солнце - температура, которую ощущает человек, с поправкой на солнечный нагрев. Характеристика знойности погоды. Зависит от высоты солнца над горизонтом, облачности и скорости ветра. Ночью, в пасмурную погоду, а также при ветре 12 м/с и более поправка равна нулю.
P - Атмосферное давление - приведенное к уровню моря атмосферное давление.
Po - Атмосферное давление - измеренное на уровне метеостанции атмосферное давление.
Tmin - Минимальная температура - минимум температуры воздуха на высоте 2 м над землей.
Tmax - Максимальная температура - максимум температуры воздуха на высоте 2 м над землей.
R - Количество осадков - Количество выпавших осадков за период времени, мм. При наведении курсора мыши на число - период времени, за который выпало указанное количество осадков.
R24 - Количество осадков - Количество выпавших осадков за 24 часа, мм.
S - Снежный покров - Высота снежного покрова, см. При наведении курсора мыши на число - состояние снежного покрова и степень покрытия местности в баллах.